State Wise Vacancy Information Home |  Exit
                                               

   
Vacant Properties Summary IP Wise
Sl.No IP Name No. of Plots No. of Sheds Area(Sqm) Land Rate in Rupees per Sqm Remarks Purpose of Industrial Park
Zone: CYBERABAD
1 IE_ VIKARABAD 1 0 0 5500 Valid from:01-04-2021 to 31-03-2022 GENERAL ENGINEERING UNITS
2 IP- RAKAMCHERLA 39 0 254488 1600 Valid from:01-04-2021 to 31-03-2022 STEELRE-ROLLING UNITS
Zone: KARIMNAGAR
1 AN-Kundanpally 7 0 1198 1600 Valid from:01-04-2021 to 31-03-2022 AUTOMOTIVE BASED INDUSTRIES
Zone: KHAMMAM
1 IDA KHAMMAM 0 3 793 5015 Valid from:01-04-2021 to 31-03-2022 General
2 IP BHADRACHALAM 2 0 3969 4478 Valid from:01-04-2021 to 31-03-2022 GENERAL
3 IP KOTHAGUDEM 2 0 6565 3000 Valid from:01-04-2021 to 31-03-2022 GENERAL
4 IP_ANNARAGUDAM 4 0 13606 1300 Valid from:01-04-2021 to 31-03-2022 General
5 MFP,BUGGAPADU,ADMIN COMPLEX 0 1 1624 83 Valid from:21-12-2021 to 31-03-2022 Lease of Special Facilities viz. Administrative Complex and Training cum design Center
6 MFP,BUGGAPADU-CS(1000MT) 0 1 4517 198 Valid from:21-12-2021 to 31-03-2022 Lease of Spl Facilities viz. - Cold Storage having capacity of 1000 MT (2 chambers @500 MT each) along with IQF Machinery with capacity of 3 MT/Hr.
7 MFP,BUGGAPADU-CS(500MT) 0 1 4517 147 Valid from:21-12-2021 to 31-03-2022 Lease of Special Facilities viz. - Cold Storage having capacity of 500 MT (1 chamber) along with IQF Machinery with capacity of 3 MT/Hr.
8 MFP,BUGGAPADU-DRY WARE HOUSE 0 1 1064 55 Valid from:21-12-2021 to 31-03-2022 Mega Food Park -Lease of Special Facilities viz. Dry Warehouse
9 MFP,BUGGAPADU-LRF BUILDING 0 1 1088 72 Valid from:21-12-2021 to 31-03-2022 Lease of Special Facilities viz. - Labour Rest Facility Building
10 MFP,BUGGAPADU-PACK HOUSE W/O 0 1 1217 63 Valid from:21-12-2021 to 31-03-2022 Lease of Spl facilities viz. Pack house with Testing and R&D Centre without Sorting & Grading Machinery and Lab equipments.
11 MFP,BUGGAPADU-Pack House 0 1 1217 85 Valid from:21-12-2021 to 31-03-2022 Lease of Spl facilities viz. Pack house with Testing and R&D Centre with Sorting and Grading Machinery and without Lab equipments.
12 MIE PALONCHA 0 18 2356 0 Price yet to be fixed General
13 Mega Food Park, Buggapadu SDF 0 8 1408 55 Valid from:21-12-2021 to 31-03-2022 Mega Food Park Standard Design Factory Sheds
14 Mega Food Park,Buggapadu 20 0 90493 993 Valid from:01-04-2021 to 31-03-2022 FOOD PROCESSING UNITS
Zone: MEDCHALSIDDIPET
1 AGRO PROC PARK BANDAMAILARAM 25 0 94147 4500 Valid from:01-04-2021 to 31-03-2022 Agro Processing Industries
2 EC Kushaiguda 1 0 834 44570 Valid from:01-04-2021 to 31-03-2022 GREEN CATEGORY
3 FOOD PROC PARK -BANDATHIMMAPUR 19 0 41893 4500 Valid from:01-04-2021 to 31-03-2022 FOOD PROCESSING PARK
4 IE Moulali 1 0 1863 30000 Valid from:01-04-2021 to 31-03-2022 GREEN CATEGORY
5 IP KONDAPUR 72 0 350958 4025 Valid from:07-12-2021 to 31-03-2022 GENERAL
6 IP SIDDIPET_MANDAPALLY 32 0 364485 1532 Valid from:01-04-2021 to 31-03-2022 General ( Green Industries )
7 IP_BTPARK_PH-II_EXTN 1 0 8134 5000 Valid from:01-04-2021 to 31-03-2022 BIOTECH INDUSTRIES
8 IP_BTPARK_PH_III_KARKAPATLA 11 0 110980 2500 Valid from:01-04-2021 to 31-03-2022 R&D units of Bio-Pharma, Vaccines, Probiotics, industrial enzymes, Bio therapeutics,Pharma Formulations etc;
9 IP_JEEDIMETLA_PH-II_IHC 12 0 4718 62000 Valid from:24-07-2021 to 31-03-2022 HOUSING PURPOSE
10 IP_KUCHARAM 3 0 15095 3500 Valid from:01-04-2021 to 31-03-2022 GENERAL
11 IP_Thunkibollaram 72 0 294128 3500 Valid from:08-12-2021 to 31-03-2022 GENERAL
12 IP_UPPAL 5 0 926 44570 Valid from:01-04-2021 to 31-03-2022 GREEN CATEGORY
13 JEEDIMETLA_PHASE-VI 3 0 1440 28000 Valid from:01-04-2021 to 31-03-2022 General
14 TSIIC_TOOPRAN 6 0 48422 5000 Valid from:01-04-2021 to 31-03-2022 AUTOMOTIVE BASED INDUSTRIES
Zone: NIZAMABAD
1 AN BODHAN 1 0 160 2509 Valid from:01-04-2021 to 31-03-2022 AUTOMOTIVE BASED INDUSTRIES
2 IE Sarangapur 1 0 1476 4000 Valid from:01-04-2021 to 31-03-2022 General
Zone: PATANCHERU
1 EPIP_PASHAMYLARAM 3 0 681 8200 Valid from:01-04-2021 to 31-03-2022 General
2 IDA_INDRAKARAN 4 0 56243 5100 Valid from:01-04-2021 to 31-03-2022 Relocation of Textile Industries
3 IP BUCHINELLY EDIBLE OIL 21 0 268326 1904 Valid from:01-04-2021 to 31-03-2022 Reserved for Relocation of Oil Industries Only
4 IP BUCHINELLY M AND M 20 0 109365 1904 Valid from:01-04-2021 to 31-03-2022 Reserved for Mahindra and Mahindra Ancillary Units
5 IP MUCHERLA 2 0 27885 1700 Valid from:01-04-2021 to 31-03-2022
6 IP Medical Devices Park 4 0 64390 5500 Valid from:01-04-2021 to 31-03-2022 Medical Device Units
7 IP Sultanpur_General Park 1 0 6152 5500 Valid from:01-04-2021 to 31-03-2022 General
8 IP-CHITKUL 90 0 19754 5600 Valid from:12-01-2022 to 31-03-2022 RESERVED FOR MSME
9 IP-INOLE 342 0 67964 3980 Valid from:21-12-2021 to 31-03-2022 Reserved for Attapur Ringroad Lorry workers Association
10 IP_YELUMALA 1 0 17752 5200 Valid from:01-04-2021 to 31-03-2022 Cargo Type
11 LED Park-Shivanagar 32 0 121791 2700 Valid from:01-04-2021 to 31-03-2022 LED Industries
12 NIMZ-PH-I 1 0 2068017 248 Valid from:21-12-2021 to 31-03-2022
13 TEXTILE PARK, PASHAMYLARAM 20 0 31131 8200 Valid from:01-04-2021 to 31-03-2022 Reserved for Textiles
14 TSIIC_PASHAMYLARAM_PH3_EXTN 1 0 931 8200 Valid from:01-04-2021 to 31-03-2022 General
Zone: SHAMSHABAD
1 AEROSPACE_SEZ ADIBATLA 1 0 75759 9000 Valid from:01-04-2021 to 31-03-2022 AEROSPACE & PRECISSION ENGINEERING INDUSTRIES
2 EHMC_NON-SEZ_AREA 2 0 21854 1483 Valid from:01-04-2021 to 31-03-2022 Electronic Manufacuring cluster at e-city
3 EMC MAHESHWARAM 2 0 16229 4744 Valid from:01-04-2021 to 31-03-2022 Electronic Manufacuring cluster
4 EMC-MAHESHWARAM 7 0 42497 2224 Valid from:01-06-2021 to 31-03-2022
5 E_CITY_SEZ 38 0 351461 5300 Valid from:01-04-2021 to 31-03-2022 SOLAR & FAB INDUSTRIES
6 GENERAL PARK MAHESHWARAM 5 0 29989 4744 Valid from:01-04-2021 to 31-03-2022 General
7 IP CHANDANVELLY3 33 0 675818 3213 Valid from:24-07-2021 to 31-03-2022
8 IP Msme Ibhrahimpatnam 8 0 32201 1500 Valid from:01-04-2021 to 31-03-2022 Fiber Glass
9 IP PALEM 4 0 5579 1500 Valid from:01-04-2021 to 31-03-2022 GENERAL
10 IP_NADERGUL 4 0 12237 8100 Valid from:01-04-2021 to 31-03-2022 Aerospace Precision Engineering works
11 NON_SEZ E-CITY 1 0 27115 2224 Valid from:12-05-2021 to 31-03-2022
12 PLASTIC PARK MANKHAL 5 0 46317 5520 Valid from:01-04-2021 to 31-03-2022 Plastic Park
13 TSIIC_HARDWARE_PARK PH-II 42 0 394758 8064 Valid from:01-04-2021 to 31-03-2022
14 TSIIC_JEDCHARLA_GIP 133 0 524217 3200 Valid from:01-04-2021 to 31-03-2022 GREEN INDUSTRIES & FORMULATIONS
Zone: WARANGAL
1 IP RAMPUR 1 0 990 4000 Valid from:01-04-2021 to 31-03-2022 GENERAL
2 KAKATIYA MEGA TEXTILE PARK 2 0 757780 495 Valid from:18-01-2022 to 31-03-2022 TEXTILE INDUSTRIES
3 SEZ MADIKONDA 42 0 58543 3000 Valid from:01-04-2021 to 31-03-2022 IT/ITES
4 TEXTILE PARK KALLEM 334 0 191570 2500 Valid from:01-04-2021 to 31-03-2022 TEXTILE INDUSTRIES
5 TEXTILE PARK MADIKONDA 2 0 900 3000 Valid from:01-04-2021 to 31-03-2022 Textile Units
Zone: YADADRI
1 IDA KODAD 8 0 12766 4390 Valid from:01-04-2021 to 31-03-2022 GENERAL
1556 36 7868741





Home |  Exit